Location: Berlise
(49.6641°N, 4.1077°E)
Time: 19:09:25
(UTC+00:00)

Cosmos 2219 Rocket - Pass Details

Date: 27 January 2021
Orbit: 828 x 846 km, 71.0° (Epoch: 27 February)

Event Time Altitude Azimuth Distance (km) Brightness Sun altitude
Exits shadow 05:23:22 21° 325° (NW) 1,783 3.5 -19.2°
Drops below altitude 10° 05:27:20 10° 10° (N) 2,447 4.6 -18.5°
Sets 05:30:24 0° 26° (NNE) 3,386 5.6 -18.1°
